CPA211 OPKC-OBBI

Flight info

Callsign CPA211
Flight time N/A
Altitude 38000
Route MELOM1F/25L MELOM A454 VUSET N571 MENSA/N0496F340 N571 IVOXI P699 ORMID M556 ORDIG
Aircraft B77W/H-SDE1E2E3FGHIJ2J3J4J5M1RWXY/LB1D1

Departure

Time N/A
Airport Jinnah International Airport (OPKC)

Arrival

Time 2026-05-07 06:45
Airport Bahrain International Airport (OBBI)
Time Latitude Longitude Altitude Speed Heading
2026-05-07 06:43 26.23523 50.69539 979 ft 157 kts 307°
2026-05-07 06:44 26.24118 50.68510 806 ft 162 kts 305°
2026-05-07 06:44 26.24706 50.67470 650 ft 156 kts 305°
2026-05-07 06:44 26.25272 50.66485 373 ft 147 kts 307°
2026-05-07 06:44 26.25846 50.65498 208 ft 154 kts 306°
2026-05-07 06:45 26.26426 50.64501 44 ft 149 kts 304°
2026-05-07 06:45 26.26936 50.63620 17 ft 116 kts 302°
2026-05-07 06:45 26.27292 50.63005 19 ft 72 kts 303°
2026-05-07 06:45 26.27499 50.62648 19 ft 48 kts 303°
2026-05-07 06:46 26.27668 50.62355 18 ft 42 kts 302°
2026-05-07 06:46 26.27769 50.62121 19 ft 30 kts 270°
2026-05-07 06:46 26.27739 50.61972 19 ft 14 kts 243°
2026-05-07 06:46 26.27715 50.61956 19 ft 3 kts 185°
2026-05-07 06:47 26.27696 50.61967 19 ft 3 kts 137°
2026-05-07 06:47 26.27681 50.61994 19 ft 8 kts 122°
2026-05-07 06:47 26.27597 50.62142 20 ft 33 kts 123°
2026-05-07 06:47 26.27473 50.62353 19 ft 32 kts 123°
2026-05-07 06:48 26.27356 50.62555 19 ft 31 kts 122°
2026-05-07 06:48 26.27243 50.62753 20 ft 30 kts 122°
2026-05-07 06:48 26.27128 50.62907 20 ft 19 kts 167°
2026-05-07 06:48 26.27040 50.62833 19 ft 16 kts 226°
2026-05-07 06:49 26.26978 50.62791 19 ft 0 kts 211°